Time,TemperatureF,DewpointF,PressureIn,WindDirection,WindDirectionDegrees,WindSpeedMPH,WindSpeedGustMPH,Humidity,HourlyPrecipIn,Conditions,Clouds,dailyrainin,SoftwareType,DateUTC
2013-01-16 00:00:00,31.0,29.0,30.11,North,355,2.0,2.0,90,0.00,,,0.00,weatherlink.com 1.10,2013-01-16 05:00:00,
2013-01-16 00:15:00,30.6,29.0,30.10,North,355,0.0,2.0,92,0.00,,,0.00,weatherlink.com 1.10,2013-01-16 05:15:00,
2013-01-16 00:30:00,30.4,29.0,30.07,NNW,348,0.0,1.0,93,0.00,,,0.00,weatherlink.com 1.10,2013-01-16 05:30:00,
2013-01-16 00:45:00,30.3,29.0,30.07,NNW,348,0.0,1.0,93,0.00,,,0.00,weatherlink.com 1.10,2013-01-16 05:45:00,
2013-01-16 01:00:00,30.4,29.0,30.07,NNW,348,0.0,1.0,93,0.00,,,0.00,weatherlink.com 1.10,2013-01-16 06:00:00,
2013-01-16 01:15:00,30.4,29.0,30.07,NNW,348,0.0,0.0,93,0.00,,,0.00,weatherlink.com 1.10,2013-01-16 06:15:00,
2013-01-16 01:30:00,30.5,29.0,30.08,NNW,348,0.0,1.0,93,0.00,,,0.00,weatherlink.com 1.10,2013-01-16 06:30:00,
2013-01-16 01:45:00,30.6,29.0,30.09,NNW,348,0.0,1.0,92,0.00,,,0.00,weatherlink.com 1.10,2013-01-16 06:45:00,
2013-01-16 02:00:00,30.7,29.0,30.08,NNW,348,0.0,1.0,93,0.00,,,0.00,weatherlink.com 1.10,2013-01-16 07:00:00,
2013-01-16 02:15:00,30.7,29.0,30.07,NNW,348,0.0,1.0,93,0.00,,,0.00,weatherlink.com 1.10,2013-01-16 07:15:00,
2013-01-16 02:30:00,30.7,29.0,30.08,NNW,348,0.0,0.0,93,0.00,,,0.00,weatherlink.com 1.10,2013-01-16 07:30:00,
2013-01-16 02:45:00,30.7,29.0,30.07,NNW,348,0.0,0.0,92,0.00,,,0.00,weatherlink.com 1.10,2013-01-16 07:45:00,
2013-01-16 03:00:00,30.8,29.0,30.07,NNW,348,0.0,1.0,92,0.00,,,0.00,weatherlink.com 1.10,2013-01-16 08:00:00,
2013-01-16 03:15:00,31.0,29.0,30.06,NNW,348,0.0,0.0,92,0.00,,,0.00,weatherlink.com 1.10,2013-01-16 08:15:00,
2013-01-16 03:30:00,31.0,29.0,30.06,NNW,348,0.0,1.0,92,0.00,,,0.00,weatherlink.com 1.10,2013-01-16 08:30:00,
2013-01-16 03:45:00,31.0,29.0,30.05,NNW,348,0.0,1.0,91,0.00,,,0.00,weatherlink.com 1.10,2013-01-16 08:45:00,
2013-01-16 04:00:00,31.2,29.0,30.02,NNW,348,0.0,2.0,92,0.00,,,0.00,weatherlink.com 1.10,2013-01-16 09:00:00,
2013-01-16 04:15:00,31.2,29.0,30.04,NNW,348,0.0,0.0,91,0.00,,,0.00,weatherlink.com 1.10,2013-01-16 09:15:00,
2013-01-16 04:30:00,31.3,29.0,30.04,NNW,348,0.0,1.0,91,0.00,,,0.00,weatherlink.com 1.10,2013-01-16 09:30:00,
2013-01-16 04:45:00,31.3,29.0,30.03,NNW,348,0.0,0.0,90,0.00,,,0.00,weatherlink.com 1.10,2013-01-16 09:45:00,
2013-01-16 05:00:00,31.4,29.0,30.03,NNW,348,0.0,0.0,91,0.00,,,0.00,weatherlink.com 1.10,2013-01-16 10:00:00,
2013-01-16 05:15:00,31.5,29.0,30.03,NNW,348,0.0,1.0,90,0.00,,,0.00,weatherlink.com 1.10,2013-01-16 10:15:00,
2013-01-16 05:30:00,31.6,29.0,30.02,NNW,348,0.0,0.0,90,0.00,,,0.00,weatherlink.com 1.10,2013-01-16 10:30:00,
2013-01-16 05:45:00,31.6,29.0,30.03,NNW,348,0.0,1.0,89,0.00,,,0.00,weatherlink.com 1.10,2013-01-16 10:45:00,
2013-01-16 06:00:00,31.7,29.0,30.02,NNW,348,0.0,1.0,89,0.00,,,0.00,weatherlink.com 1.10,2013-01-16 11:00:00,
2013-01-16 06:15:00,31.8,29.0,30.01,NNW,348,0.0,0.0,90,0.00,,,0.00,weatherlink.com 1.10,2013-01-16 11:15:00,
2013-01-16 06:30:00,31.8,29.0,30.02,NNW,348,0.0,0.0,90,0.00,,,0.00,weatherlink.com 1.10,2013-01-16 11:30:00,
2013-01-16 06:45:00,31.7,29.0,30.02,NNW,348,0.0,0.0,90,0.00,,,0.00,weatherlink.com 1.10,2013-01-16 11:45:00,
2013-01-16 07:00:00,31.8,29.0,30.02,NNW,348,0.0,0.0,90,0.00,,,0.00,weatherlink.com 1.10,2013-01-16 12:00:00,
2013-01-16 07:15:00,31.8,30.0,30.01,NNW,348,0.0,0.0,91,0.00,,,0.00,weatherlink.com 1.10,2013-01-16 12:15:00,
2013-01-16 07:30:00,31.7,29.0,30.02,NNW,348,0.0,0.0,91,0.00,,,0.00,weatherlink.com 1.10,2013-01-16 12:30:00,
2013-01-16 07:45:00,31.8,30.0,30.02,NNW,348,0.0,1.0,91,0.00,,,0.00,weatherlink.com 1.10,2013-01-16 12:45:00,
2013-01-16 08:00:00,31.9,29.0,30.02,NNW,348,0.0,0.0,90,0.00,,,0.00,weatherlink.com 1.10,2013-01-16 13:00:00,
2013-01-16 08:15:00,32.1,30.0,30.03,NNW,348,0.0,0.0,90,0.00,,,0.00,weatherlink.com 1.10,2013-01-16 13:15:00,
2013-01-16 08:30:00,32.2,29.0,30.03,NNW,348,0.0,2.0,88,0.00,,,0.00,weatherlink.com 1.10,2013-01-16 13:30:00,
2013-01-16 08:45:00,32.3,29.0,30.03,NNW,348,0.0,1.0,88,0.00,,,0.00,weatherlink.com 1.10,2013-01-16 13:45:00,
2013-01-16 09:00:00,32.4,29.0,30.06,WSW,257,0.0,2.0,87,0.00,,,0.00,weatherlink.com 1.10,2013-01-16 14:00:00,
2013-01-16 09:15:00,32.6,30.0,30.07,WSW,257,0.0,1.0,88,0.00,,,0.00,weatherlink.com 1.10,2013-01-16 14:15:00,
2013-01-16 09:30:00,32.7,30.0,30.08,WNW,297,0.0,1.0,88,0.00,,,0.00,weatherlink.com 1.10,2013-01-16 14:30:00,
2013-01-16 09:45:00,32.7,29.0,30.07,ENE,61,0.0,2.0,87,0.00,,,0.00,weatherlink.com 1.10,2013-01-16 14:45:00,
2013-01-16 10:00:00,32.8,29.0,30.08,SSE,150,1.0,2.0,86,0.00,,,0.00,weatherlink.com 1.10,2013-01-16 15:00:00,
2013-01-16 10:15:00,32.9,29.0,30.08,South,188,0.0,3.0,86,0.00,,,0.00,weatherlink.com 1.10,2013-01-16 15:15:00,
2013-01-16 10:30:00,33.0,29.0,30.07,South,184,3.0,3.0,86,0.00,,,0.00,weatherlink.com 1.10,2013-01-16 15:30:00,
2013-01-16 10:45:00,33.2,30.0,30.07,SSW,209,1.0,3.0,86,0.00,,,0.00,weatherlink.com 1.10,2013-01-16 15:45:00,
2013-01-16 11:00:00,33.2,30.0,30.06,SSW,209,1.0,3.0,86,0.00,,,0.00,weatherlink.com 1.10,2013-01-16 16:00:00,
2013-01-16 11:15:00,33.3,30.0,30.07,SW,222,2.0,3.0,87,0.00,,,0.00,weatherlink.com 1.10,2013-01-16 16:15:00,
2013-01-16 11:30:00,33.4,30.0,30.05,SSW,206,0.0,3.0,87,0.00,,,0.00,weatherlink.com 1.10,2013-01-16 16:30:00,
2013-01-16 11:45:00,33.6,30.0,30.04,NNW,344,0.0,2.0,86,0.00,,,0.00,weatherlink.com 1.10,2013-01-16 16:45:00,
2013-01-16 12:00:00,34.0,31.0,30.03,South,184,2.0,3.0,87,0.00,,,0.00,weatherlink.com 1.10,2013-01-16 17:00:00,
2013-01-16 12:15:00,34.2,30.0,30.04,West,261,0.0,3.0,85,0.00,,,0.00,weatherlink.com 1.10,2013-01-16 17:15:00,
2013-01-16 12:31:00,34.5,30.0,30.03,SSW,205,0.0,2.0,84,0.00,,,0.00,weatherlink.com 1.10,2013-01-16 17:31:00,
2013-01-16 12:46:00,34.6,30.0,30.02,West,278,0.0,3.0,83,0.00,,,0.00,weatherlink.com 1.10,2013-01-16 17:46:00,
2013-01-16 13:01:00,35.0,30.0,30.02,SW,215,3.0,4.0,83,0.01,,,0.01,weatherlink.com 1.10,2013-01-16 18:01:00,
2013-01-16 13:16:00,35.1,30.0,30.02,SSW,210,1.0,5.0,82,0.01,,,0.01,weatherlink.com 1.10,2013-01-16 18:16:00,
2013-01-16 13:31:00,35.4,30.0,30.02,SSW,198,2.0,4.0,81,0.02,,,0.02,weatherlink.com 1.10,2013-01-16 18:31:00,
2013-01-16 13:46:00,35.5,30.0,30.01,SSW,210,0.0,3.0,81,0.02,,,0.02,weatherlink.com 1.10,2013-01-16 18:46:00,
2013-01-16 14:01:00,35.7,30.0,30.02,SSW,205,2.0,4.0,81,0.01,,,0.02,weatherlink.com 1.10,2013-01-16 19:01:00,
2013-01-16 14:16:00,35.9,30.0,30.02,SSW,207,2.0,6.0,79,0.01,,,0.02,weatherlink.com 1.10,2013-01-16 19:16:00,
2013-01-16 14:31:00,36.1,30.0,30.03,South,188,3.0,4.0,77,0.00,,,0.02,weatherlink.com 1.10,2013-01-16 19:31:00,
2013-01-16 14:46:00,36.1,30.0,30.02,SSW,200,1.0,4.0,79,0.00,,,0.02,weatherlink.com 1.10,2013-01-16 19:46:00,
2013-01-16 15:01:00,36.1,30.0,30.01,SW,233,1.0,4.0,78,0.00,,,0.02,weatherlink.com 1.10,2013-01-16 20:01:00,
2013-01-16 15:16:00,36.3,30.0,30.02,SSW,195,3.0,5.0,78,0.00,,,0.02,weatherlink.com 1.10,2013-01-16 20:16:00,
2013-01-16 15:46:00,36.3,30.0,30.04,SSW,193,1.0,2.0,77,0.00,,,0.02,weatherlink.com 1.10,2013-01-16 20:46:00,
2013-01-16 16:01:00,36.2,30.0,30.04,SW,217,1.0,3.0,77,0.00,,,0.02,weatherlink.com 1.10,2013-01-16 21:01:00,
2013-01-16 16:16:00,36.1,29.0,30.04,South,178,1.0,5.0,76,0.00,,,0.02,weatherlink.com 1.10,2013-01-16 21:16:00,
2013-01-16 16:31:00,35.7,30.0,30.04,SW,218,3.0,5.0,81,0.00,,,0.02,weatherlink.com 1.10,2013-01-16 21:31:00,
2013-01-16 16:46:00,35.2,31.0,30.05,SSW,213,1.0,5.0,83,0.00,,,0.02,weatherlink.com 1.10,2013-01-16 21:46:00,
2013-01-16 17:01:00,34.9,31.0,30.05,South,172,1.0,4.0,84,0.00,,,0.02,weatherlink.com 1.10,2013-01-16 22:01:00,
2013-01-16 17:16:00,34.6,31.0,30.06,SSW,207,1.0,5.0,85,0.00,,,0.02,weatherlink.com 1.10,2013-01-16 22:16:00,
2013-01-16 17:31:00,34.4,30.0,30.07,SSW,213,2.0,5.0,85,0.00,,,0.02,weatherlink.com 1.10,2013-01-16 22:31:00,
2013-01-16 17:46:00,34.1,30.0,30.07,South,190,1.0,7.0,86,0.00,,,0.02,weatherlink.com 1.10,2013-01-16 22:46:00,
2013-01-16 18:01:00,33.7,30.0,30.06,SSW,209,2.0,4.0,86,0.00,,,0.02,weatherlink.com 1.10,2013-01-16 23:01:00,
2013-01-16 18:16:00,33.5,30.0,30.06,South,179,0.0,4.0,87,0.00,,,0.02,weatherlink.com 1.10,2013-01-16 23:16:00,
2013-01-16 18:31:00,33.2,30.0,30.06,SSW,203,0.0,2.0,88,0.00,,,0.02,weatherlink.com 1.10,2013-01-16 23:31:00,
2013-01-16 18:46:00,32.9,30.0,30.07,SSW,212,0.0,3.0,89,0.00,,,0.02,weatherlink.com 1.10,2013-01-16 23:46:00,
2013-01-16 19:01:00,32.8,30.0,30.07,SSW,210,1.0,3.0,90,0.00,,,0.02,weatherlink.com 1.10,2013-01-17 00:01:00,
2013-01-16 19:16:00,32.7,30.0,30.07,South,183,0.0,4.0,90,0.00,,,0.02,weatherlink.com 1.10,2013-01-17 00:16:00,
2013-01-16 19:31:00,32.6,30.0,30.09,SSW,205,2.0,4.0,91,0.00,,,0.02,weatherlink.com 1.10,2013-01-17 00:31:00,
2013-01-16 19:46:00,32.5,30.0,30.09,South,179,1.0,4.0,91,0.00,,,0.02,weatherlink.com 1.10,2013-01-17 00:46:00,
2013-01-16 20:01:00,32.4,30.0,30.09,SSE,160,3.0,5.0,90,0.00,,,0.02,weatherlink.com 1.10,2013-01-17 01:01:00,
2013-01-16 20:16:00,32.5,30.0,30.09,SSW,205,0.0,4.0,90,0.00,,,0.02,weatherlink.com 1.10,2013-01-17 01:16:00,
2013-01-16 20:31:00,32.5,30.0,30.10,SSW,195,1.0,4.0,90,0.00,,,0.02,weatherlink.com 1.10,2013-01-17 01:31:00,
2013-01-16 20:46:00,32.4,30.0,30.09,SSW,199,2.0,5.0,90,0.00,,,0.02,weatherlink.com 1.10,2013-01-17 01:46:00,
2013-01-16 21:01:00,32.3,30.0,30.09,South,190,2.0,3.0,90,0.00,,,0.02,weatherlink.com 1.10,2013-01-17 02:01:00,
2013-01-16 21:16:00,32.3,30.0,30.10,SW,224,1.0,3.0,90,0.00,,,0.02,weatherlink.com 1.10,2013-01-17 02:16:00,
2013-01-16 21:31:00,32.2,30.0,30.09,SW,227,0.0,3.0,91,0.00,,,0.02,weatherlink.com 1.10,2013-01-17 02:31:00,
2013-01-16 21:46:00,32.1,30.0,30.10,SSW,207,2.0,4.0,91,0.00,,,0.02,weatherlink.com 1.10,2013-01-17 02:46:00,
2013-01-16 22:01:00,32.1,30.0,30.10,SE,136,2.0,4.0,92,0.00,,,0.02,weatherlink.com 1.10,2013-01-17 03:01:00,
2013-01-16 22:16:00,32.0,30.0,30.11,SW,221,1.0,4.0,92,0.00,,,0.02,weatherlink.com 1.10,2013-01-17 03:16:00,
2013-01-16 22:31:00,32.0,30.0,30.11,SSW,209,2.0,5.0,91,0.00,,,0.02,weatherlink.com 1.10,2013-01-17 03:31:00,
2013-01-16 22:46:00,32.0,30.0,30.10,SW,217,2.0,4.0,91,0.00,,,0.02,weatherlink.com 1.10,2013-01-17 03:46:00,
2013-01-16 23:01:00,32.0,30.0,30.11,SE,146,3.0,4.0,91,0.00,,,0.02,weatherlink.com 1.10,2013-01-17 04:01:00,
2013-01-16 23:16:00,32.1,30.0,30.11,SSW,195,2.0,4.0,90,0.00,,,0.02,weatherlink.com 1.10,2013-01-17 04:16:00,
2013-01-16 23:31:00,32.1,29.0,30.10,SSW,212,1.0,5.0,89,0.00,,,0.02,weatherlink.com 1.10,2013-01-17 04:31:00,
2013-01-16 23:47:00,32.2,29.0,30.12,SW,214,2.0,2.0,89,0.00,,,0.02,weatherlink.com 1.10,2013-01-17 04:47:00,